EW9525 Weather Reports


time (UTC)temp
C
wind
direction
speed
KPH
gust
KPH
rain 1hr
cm
rain 24hr
cm
rain mn
cm
humidity
%
barometer
mb
20260504213048 25 342 24.1 37.0 0.00 0.00 0.00 25 1000.6
20260504211547 26 11 24.1 35.4 0.00 0.00 0.00 24 1000.7
20260504210058 26 7 25.7 40.2 0.00 0.00 0.00 24 1000.7
20260504204603 26 336 32.2 43.5 0.00 0.00 0.00 26 1000.7
20260504203059 26 329 29.0 37.0 0.00 0.00 0.00 26 1000.6
20260504201543 26 338 22.5 29.0 0.00 0.00 0.00 23 1001.0
20260504200043 28 290 6.4 20.9 0.00 0.00 0.00 19 1000.9
20260504194540 28 16 8.0 12.9 0.00 0.00 0.00 16 1001.1
20260504193038 27 91 6.4 14.5 0.00 0.00 0.00 20 1001.1
20260504191537 27 40 11.3 19.3 0.00 0.00 0.00 19 1001.3
20260504190035 27 39 9.7 20.9 0.00 0.00 0.00 19 1001.1
20260504184533 27 337 4.8 12.9 0.00 0.00 0.00 19 1001.7
20260504183031 26 86 3.2 16.1 0.00 0.00 0.00 18 1001.9
20260504181529 26 349 11.3 19.3 0.00 0.00 0.00 19 1001.9
20260504180028 26 310 4.8 14.5 0.00 0.00 0.00 22 1002.1
20260504174527 25 347 14.5 24.1 0.00 0.00 0.00 20 1002.2
20260504173024 26 360 6.4 19.3 0.00 0.00 0.00 22 1002.3
20260504171522 25 23 6.4 11.3 0.00 0.00 0.00 22 1002.3
20260504081509 6 193 3.2 6.4 0.00 0.00 0.00 64 1004.1
20260504044539 10 295 1.6 6.4 0.00 0.00 0.00 53 1006.4
20260504043039 14 58 4.8 8.0 0.00 0.00 0.00 42 1006.2
20260504041543 12 335 0.0 4.8 0.00 0.00 0.00 48 1006.4
20260504040041 13 318 1.6 4.8 0.00 0.00 0.00 44 1006.3
20260504034544 15 60 3.2 4.8 0.00 0.00 0.00 42 1006.2
20260504033036 15 76 4.8 11.3 0.00 0.00 0.00 42 1006.1
20260504031540 15 74 3.2 6.4 0.00 0.00 0.00 40 1006.2
20260504030036 15 32 0.0 3.2 0.00 0.00 0.00 40 1006.1
20260504024540 16 22 1.6 4.8 0.00 0.00 0.00 37 1006.0
20260504023035 17 22 1.6 3.2 0.00 0.00 0.00 37 1005.9
20260504021536 17 18 1.6 3.2 0.00 0.00 0.00 37 1005.7
20260504020038 17 34 3.2 4.8 0.00 0.00 0.00 36 1005.6
20260504014537 18 23 3.2 4.8 0.00 0.00 0.00 34 1005.7
20260504013042 19 16 4.8 8.0 0.00 0.00 0.00 32 1005.7
20260504011532 20 25 6.4 9.7 0.00 0.00 0.00 30 1005.7
20260504010030 21 15 8.0 12.9 0.00 0.00 0.00 28 1005.9
20260504004528 22 11 8.0 14.5 0.00 0.00 0.00 26 1006.1
20260504003026 23 359 9.7 14.5 0.00 0.00 0.00 24 1006.3
20260504001534 23 23 9.7 17.7 0.00 0.00 0.00 24 1006.2
20260504000025 24 9 12.9 19.3 0.00 0.00 0.00 22 1006.5
20260503234524 23 13 12.9 19.3 0.00 0.00 0.00 23 1006.5
20260503233023 23 8 12.9 19.3 0.00 0.00 0.00 22 1006.6
20260503231525 24 30 12.9 17.7 0.00 0.00 0.00 22 1006.7
20260503230035 24 335 9.7 20.9 0.00 0.00 0.00 22 1006.9
20260503224521 24 35 11.3 17.7 0.00 0.00 0.00 22 1007.0
20260503223019 25 1 9.7 19.3 0.00 0.00 0.00 22 1007.2
20260503221517 24 321 8.0 17.7 0.00 0.00 0.00 23 1007.3
20260503220016 25 42 9.7 19.3 0.00 0.00 0.00 23 1007.5
20260503214534 25 47 11.3 32.2 0.00 0.00 0.00 24 1007.7